Weather in Leskovo

Russia / Voronezh Oblast     50°22′28″N   40°43′14″E
temp.,
°C
wind,
m/s
gust,
m/s
humid.,
%
clouds,
%
prec.,
mm/h
press.,
hPa
HPBL,
m
26 february, fri
fri2600:00+1w51198100 0.1 1019295
03:00+1w51098100 0.1 1019275
06:00+1wnw4999100 0.1 1019217
09:00+2w3699100 0.1 1018127
12:00+3w510100100 0.1 1017234
15:00+4w61399100 0.1 1016296
18:00+4w61598100 0.0 1014435
21:00+3w61398100 0.1 1013347
27 february, sat
sat2700:00+3w61297100 0.1 1011362
03:00+2w51295100 0.1 1011425
06:00+1w51194100 0.0 1010459
09:00+1w61194100 0.0 1010523
12:00+3w61084100 0.0 1010845
15:00+3wnw61080100 0.2 1010960
18:00+1wnw6129491 0.0 1010506
21:000wnw5119393 0.1 1011437
28 february, sun
sun2800:000nw599698 0.0 1012479
03:000nw499698 0.1 1013431
06:00−2nnw488198 0.1 1014420
09:00−3nnw467993 0.1 1015554
12:00−2nnw467397 0.0 1016666
15:00−1nw467296 0.0 1017754
18:00−2nnw467897 0.0 1017736
21:00−3nnw358496 0.0 1019587
1 march, mon
mon100:00−3n248793 0.1 1020388
03:00−3n248690 0.1 1022474
06:00−4n358395 0.0 1023512
09:00−4n357883 0.0 1025504
12:00−2n346488 0.0 1026684
15:00−1nnw346287 0.0 1027771
18:00−2nw357560 0.0 1027186
21:00−3wnw227930 0.0 102868
2 march, tue
tue200:00−3w378434 0.0 1027257
03:00−1w5107566 0.0 1026709
06:00−2w71282100 0.0 1023544
09:000w71389100 0.2 1021699
12:00+1wnw71184100 0.0 1020819
15:00+1wnw61291100 0.0 1018650
18:00+1wnw71396100 0.1 1016665
21:00+1nw61295100 0.1 1017676